Tracking 30970 objects as of 3-Jul-2025
HD Live streaming from Space Station
objects crossing your sky now

ATLAS CENTAUR 2 DEB

Track ATLAS CENTAUR 2 DEB now!
10-day predictions


NORAD ID: 3741
Int'l Code: 1963-047L
Perigee: 581.4 km
Apogee: 943.6 km
Inclination: 29.9 °
Period: 99.9 minutes
Semi major axis: 7133 km
RCS: 0.0775 m2 (small)
Launch date: November 27, 1963
Source: United States (US)
Launch site: AIR FORCE EASTERN TEST RANGE (AFETR)

Note: This is SATELLITE DEBRIS
Your satellite tracking list
Your tracking list is empty




NASA's NSSDC Master Catalog

Two Line Element Set (TLE):
1 03741U 63047L   25182.52817248  .00004013  00000-0  81425-3 0  9991
2 03741  29.8803 278.6792 0253880 288.0867  69.2234 14.40952662862082
Source of the keplerian elements: AFSPC